Regional Weather Roundup
Issued by NWS

Home | Current Version | Previous Version | Text Only | Print | Product List | Glossary On
Versions: 1 2 3 4 5 6 7 8 9 10 11 12 13 14 15 16 17 18 19 20 21 22 23 24 25 26 27 28 29 30 31 32 33 34 35 36 37 38 39 40 41 42 43 44 45 46 47 48 49 50
000
ASUS44 KOUN 142110
RWROK

WEATHER ROUNDUP FOR OKLAHOMA
NATIONAL WEATHER SERVICE NORMAN OK
300 PM CST THU DEC 14 2017

NOTE: "FAIR" INDICATES FEW OR NO CLOUDS BELOW 12,000 FEET WITH NO
      SIGNIFICANT WEATHER AND/OR OBSTRUCTIONS TO VISIBILITY.

OKZ001>007-009>012-014-015-017-142200-
NORTHWEST OKLAHOMA AND THE PANHANDLE

CITY           SKY/WX    TMP DP  RH WIND       PRES   REMARKS
GAGE           PTSUNNY   51  26  37 NW15G23   30.12F
GUYMON         CLOUDY    47  28  47 N21G26    30.15S
ENID/WOODRING  MOSUNNY   52  28  40 NW9       30.11F
$$

OKZ016-021>023-033>039-044-045-142200-
SOUTHWEST OKLAHOMA

CITY           SKY/WX    TMP DP  RH WIND       PRES   REMARKS
LAWTON/REGL    SUNNY     54  28  36 N14       30.12F
LAWTON/FT SILL SUNNY     53  29  40 N15G25    30.11F
FREDERICK      SUNNY     54  26  34 N14G23    30.10F
CLINTON        MOSUNNY   48  23  37 N16       30.14F
HOBART         SUNNY     54  25  32 N16       30.14F
ALTUS AFB      SUNNY     54  21  28 N12G23    30.14F
$$

OKZ018>020-024>031-142200-
CENTRAL OKLAHOMA

CITY           SKY/WX    TMP DP  RH WIND       PRES   REMARKS
OKLAHOMA CITY  MOSUNNY   50  25  37 N17G23    30.12S
OKC/WILEY POST SUNNY     50  27  40 N14       30.13S
OKC/TINKER AFB SUNNY     50  25  37 N17G23    30.11S
STILLWATER     SUNNY     51  24  34 N10G20    30.12S
GUTHRIE        SUNNY     48  28  46 NW6       30.13F
$$

OKZ008-013-054>072-142200-
NORTHEAST OKLAHOMA

CITY           SKY/WX    TMP DP  RH WIND       PRES   REMARKS
TULSA          MOSUNNY   48  25  40 N10       30.12S
TULSA/JONES    SUNNY     50  24  36 NW9       30.11F
PONCA CITY     SUNNY     51  25  36 N12       30.11F
BARTLESVILLE   SUNNY     49  25  39 N7G17     30.12F
MUSKOGEE       CLOUDY    49  28  44 N15       30.12F
$$

OKZ032-040>043-046>053-073>077-142200-
SOUTH CENTRAL/SOUTHEAST OKLAHOMA

CITY           SKY/WX    TMP DP  RH WIND       PRES   REMARKS
ARDMORE/DWNTWN SUNNY     54  25  32 NE13      30.09S
MCALESTER      PTSUNNY   53  27  36 N17G25    30.08S
$$





USA.gov is the U.S. government's official web portal to all federal, state and local government web resources and services.